sat.trackr.live / text

‹ back to catalog

STARLINK-11162 [DTC]

NORAD 60123 · 2024-118L

PAYLOAD ACTIVE UNKNOWN

§ Identity

Operator
Country
US
Launch date
2024-06-24
Launch site
AFWTR
Launch vehicle
Mass (kg)
RCS (m²)

Purposes: comms

External: N2YO · Heavens-Above · Gunter

§ Orbital elements

Epoch: 2026-09-21T12:17:14.665056Z

Period
91.74 min
Inclination
53.1588°
Eccentricity
0.0001042
Mean motion
15.69689583 rev/d
Perigee alt
359.1 km
Apogee alt
360.5 km
Semi-major
6,737.9 km
B*
2.2098e-6
RAAN
335.6148°
Arg perigee
95.5735°
Mean anomaly
264.5402°
Rev number
12,875

§ Raw data

STARLINK-11162 [DTC]1 60123U 24118L   26264.51197529 -.00000321  00000+0  22098-5 0  99992 60123  53.1588 335.6148 0001042  95.5735 264.5402 15.69689583128751

JSON: /api/v1/satellites/60123 · /tle

For live sub-satellite position, see the globe view (requires WebGL).

§ Visibility from observer

Set your observer location to see the next 7 days of passes ≥ 10°. The values pass through the URL so the page stays shareable.

No JS? Fill the form by hand. The geolocation button needs JavaScript.